Regional Weather Roundup
Issued by NWS

Home | Current Version | Previous Version | Graphics & Text | Print | Product List | Glossary On
Versions: 1 2 3 4 5 6 7 8 9 10 11 12 13 14 15 16 17 18 19 20 21 22 23 24 25 26 27 28 29 30 31 32 33 34 35 36 37 38 39 40 41 42 43 44 45 46 47 48 49 50
000
ASUS43 KBIS 201910
RWRND
NORTH DAKOTA REGIONAL WEATHER ROUNDUP
NATIONAL WEATHER SERVICE EASTERN NORTH DAKOTA/GRAND FORKS ND
200 PM CDT SUN MAY 20 2018

  NOTE: "FAIR" INDICATES FEW OR NO CLOUDS BELOW 12,000 FEET WITH NO
  SIGNIFICANT WEATHER AND/OR OBSTRUCTIONS TO VISIBILITY.

NDZ001>003-009>011-017-202000-
...NORTHWEST NORTH DAKOTA...

CITY           SKY/WX    TMP DP  RH WIND       PRES   REMARKS
WILLISTON      FAIR      69  31  24 SE15G25   30.17F
MINOT          FAIR      73  28  18 S13G20    30.19F
MINOT AFB      FAIR      72  31  22 SE15      30.18F
$$

NDZ018>021-031>035-040>046-202000-
...SOUTHWEST NORTH DAKOTA...

CITY           SKY/WX    TMP DP  RH WIND       PRES   REMARKS
BISMARCK       FAIR      66  36  32 S9        30.23F
DICKINSON      FAIR      66  34  30 S17G24    30.18F
GARRISON         N/A     68  30  24 S16       30.21F
HETTINGER      FAIR      62  33  33 S13       30.21F
$$

NDZ004>008-012>016-024-026-027-054-202000-
...NORTHEAST NORTH DAKOTA...

CITY           SKY/WX    TMP DP  RH WIND       PRES   REMARKS
GRAND FORKS    FAIR      71  37  28 VRB6      30.21F
GRAND FORKS AF FAIR      73  35  24 SE5       30.21F
DEVILS LAKE    FAIR      68  34  28 SW8       30.23F
$$

NDZ022-023-025-028>030-036>039-047>053-202000-
...SOUTHEAST NORTH DAKOTA...

CITY           SKY/WX    TMP DP  RH WIND       PRES   REMARKS
JAMESTOWN      FAIR      67  39  35 CALM      30.23F
FARGO          FAIR      69  35  28 CALM      30.23F
WAHPETON       FAIR      70  23  17 E12G22    30.23F
$$



USA.gov is the U.S. government's official web portal to all federal, state and local government web resources and services.